Overview Statistics Trail Chart Weather Telemetry Raw packets
 

This is the latest recevied weather packets stored in our database for station/object F8KHU-13. If no packets are shown the sender has not sent any weather packets the latest 10 day(s).

<< 45 46 47 48 49 50 51 >>
Time Temp. Humidity Pressure Rain* Wind** Luminosity Snow
1788097245 22.78° C 26% 1013 hPa 0 mm - 0 W/m² -
1788097225 22.78° C 26% 1013 hPa 0 mm - 0 W/m² -
1788096365 22.78° C 26% 1013 hPa 0 mm - 0 W/m² -
1788096345 22.78° C 26% 1013.1 hPa 0 mm - 0 W/m² -
1788095465 22.78° C 26% 1013.1 hPa 0 mm - 0 W/m² -
1788095445 21.67° C 27% 1013.2 hPa 0 mm - 0 W/m² -
1788095425 22.78° C 26% 1013.2 hPa 0 mm - 0 W/m² -
1788094566 22.78° C 26% 1013.3 hPa 0 mm - 0 W/m² -
1788094545 23.33° C 26% 1013.2 hPa 0 mm - 0 W/m² -
1788094525 22.78° C 26% 1013.3 hPa 0 mm - 0 W/m² -
1788093645 21.67° C 27% 1013.3 hPa 0 mm - 0 W/m² -
1788093626 21.67° C 27% 1013.3 hPa 0 mm - 0 W/m² -
1788092746 20.56° C 27% 1013.4 hPa 0 mm - 0 W/m² -
1788091866 20.56° C 27% 1013.4 hPa 0 mm - 0 W/m² -
1788091846 20.56° C 27% 1013.4 hPa 0 mm - 0 W/m² -
1788091826 20.56° C 27% 1013.4 hPa 0 mm - 0 W/m² -
1788090966 20.56° C 27% 1013.3 hPa 0 mm - 0 W/m² -
1788090946 20.56° C 27% 1013.4 hPa 0 mm - 0 W/m² -
1788090061 20.56° C 27% 1013.1 hPa 0 mm - 0 W/m² -
1788090041 20.56° C 27% 1013.2 hPa 0 mm - 0 W/m² -
1788089161 20.56° C 27% 1013.3 hPa 0 mm - 0 W/m² -
1788089141 20.56° C 27% 1013.2 hPa 0 mm - 0 W/m² -
1788089121 20.56° C 27% 1013.2 hPa 0 mm - 0 W/m² -
1788088261 20.56° C 27% 1013.2 hPa 0 mm - 0 W/m² -
1788088241 20° C 28% 1013.1 hPa 0 mm - 0 W/m² -

* Rain latest hour (hover to see other rain measurements)
** Current wind speed in m/s (hover to see current wind gust speed)